Time,TemperatureF,DewpointF,PressureIn,WindDirection,WindDirectionDegrees,WindSpeedMPH,WindSpeedGustMPH,Humidity,HourlyPrecipIn,Conditions,Clouds,dailyrainin,SoftwareType,DateUTC
2013-09-21 00:11:00,41.0,39.0,-100.00,West,270,6.0,11.0,94,-99.99,,,-99.99,,2013-09-21 07:11:00,
2013-09-21 00:42:00,40.0,39.0,-100.00,West,270,9.0,17.0,97,-99.99,,,-99.99,,2013-09-21 07:42:00,
2013-09-21 00:52:00,40.0,39.0,-100.00,West,270,6.0,12.0,98,-99.99,,,-99.99,,2013-09-21 07:52:00,
2013-09-21 01:12:00,40.0,38.0,-100.00,West,270,8.0,14.0,93,-99.99,,,-99.99,,2013-09-21 08:12:00,
2013-09-21 01:21:00,39.0,36.0,-100.00,West,270,9.0,11.0,88,-99.99,,,-99.99,,2013-09-21 08:21:00,
2013-09-21 01:42:00,39.0,35.0,-100.00,West,270,9.0,15.0,85,-99.99,,,-99.99,,2013-09-21 08:42:00,
2013-09-21 01:52:00,40.0,35.0,-100.00,West,270,8.0,13.0,82,-99.99,,,-99.99,,2013-09-21 08:52:00,
2013-09-21 02:11:00,40.0,35.0,-100.00,West,270,8.0,14.0,81,-99.99,,,-99.99,,2013-09-21 09:11:00,
2013-09-21 02:22:00,39.0,35.0,-100.00,West,270,8.0,13.0,85,-99.99,,,-99.99,,2013-09-21 09:22:00,
2013-09-21 02:43:00,39.0,35.0,-100.00,West,270,8.0,15.0,86,-99.99,,,-99.99,,2013-09-21 09:43:00,
2013-09-21 02:54:00,39.0,35.0,-100.00,West,270,9.0,12.0,87,-99.99,,,-99.99,,2013-09-21 09:54:00,
2013-09-21 03:12:00,39.0,35.0,-100.00,West,270,8.0,13.0,86,-99.99,,,-99.99,,2013-09-21 10:12:00,
2013-09-21 03:23:00,38.0,35.0,-100.00,West,270,8.0,12.0,90,-99.99,,,-99.99,,2013-09-21 10:23:00,
2013-09-21 03:42:00,37.0,35.0,-100.00,West,270,8.0,11.0,91,-99.99,,,-99.99,,2013-09-21 10:42:00,
2013-09-21 03:52:00,36.0,35.0,-100.00,West,270,8.0,12.0,94,-99.99,,,-99.99,,2013-09-21 10:52:00,
2013-09-21 04:11:00,36.0,35.0,-100.00,West,270,9.0,14.0,95,-99.99,,,-99.99,,2013-09-21 11:11:00,
2013-09-21 04:23:00,37.0,34.0,-100.00,West,270,11.0,16.0,89,-99.99,,,-99.99,,2013-09-21 11:23:00,
2013-09-21 04:42:00,39.0,34.0,-100.00,West,270,9.0,16.0,83,-99.99,,,-99.99,,2013-09-21 11:42:00,
2013-09-21 04:52:00,39.0,34.0,-100.00,West,270,8.0,16.0,82,-99.99,,,-99.99,,2013-09-21 11:52:00,
2013-09-21 05:12:00,39.0,34.0,-100.00,West,270,9.0,21.0,81,-99.99,,,-99.99,,2013-09-21 12:12:00,
2013-09-21 05:21:00,39.0,34.0,-100.00,West,270,9.0,14.0,82,-99.99,,,-99.99,,2013-09-21 12:21:00,
2013-09-21 05:42:00,38.0,34.0,-100.00,West,270,9.0,15.0,84,-99.99,,,-99.99,,2013-09-21 12:42:00,
2013-09-21 05:52:00,39.0,33.0,-100.00,West,270,9.0,16.0,79,-99.99,,,-99.99,,2013-09-21 12:52:00,
2013-09-21 06:11:00,40.0,33.0,-100.00,West,270,9.0,16.0,78,-99.99,,,-99.99,,2013-09-21 13:11:00,
2013-09-21 06:21:00,39.0,33.0,-100.00,West,270,7.0,11.0,78,-99.99,,,-99.99,,2013-09-21 13:21:00,
2013-09-21 06:42:00,39.0,33.0,-100.00,West,270,4.0,12.0,79,-99.99,,,-99.99,,2013-09-21 13:42:00,
2013-09-21 06:52:00,38.0,34.0,-100.00,West,270,3.0,6.0,87,-99.99,,,-99.99,,2013-09-21 13:52:00,
2013-09-21 07:11:00,38.0,34.0,-100.00,NW,315,3.0,6.0,88,-99.99,,,-99.99,,2013-09-21 14:11:00,
2013-09-21 07:22:00,37.0,35.0,-100.00,West,270,1.0,3.0,92,-99.99,,,-99.99,,2013-09-21 14:22:00,
2013-09-21 07:42:00,36.0,35.0,-100.00,NW,315,2.0,4.0,95,-99.99,,,-99.99,,2013-09-21 14:42:00,
2013-09-21 07:52:00,37.0,36.0,-100.00,West,270,4.0,6.0,96,-99.99,,,-99.99,,2013-09-21 14:52:00,
2013-09-21 08:12:00,38.0,36.0,-100.00,West,270,3.0,6.0,93,-99.99,,,-99.99,,2013-09-21 15:12:00,
2013-09-21 08:22:00,38.0,36.0,-100.00,West,270,4.0,6.0,91,-99.99,,,-99.99,,2013-09-21 15:22:00,
2013-09-21 08:44:00,39.0,36.0,-100.00,West,270,3.0,5.0,90,-99.99,,,-99.99,,2013-09-21 15:44:00,
2013-09-21 08:55:00,39.0,36.0,-100.00,West,270,4.0,6.0,89,-99.99,,,-99.99,,2013-09-21 15:55:00,
2013-09-21 09:14:00,40.0,36.0,-100.00,West,270,4.0,6.0,88,-99.99,,,-99.99,,2013-09-21 16:14:00,
2013-09-21 09:24:00,41.0,37.0,-100.00,West,270,2.0,9.0,84,-99.99,,,-99.99,,2013-09-21 16:24:00,
2013-09-21 09:43:00,41.0,36.0,-100.00,West,270,6.0,9.0,83,-99.99,,,-99.99,,2013-09-21 16:43:00,
2013-09-21 09:54:00,42.0,37.0,-100.00,West,270,7.0,9.0,81,-99.99,,,-99.99,,2013-09-21 16:54:00,
2013-09-21 10:12:00,43.0,36.0,-100.00,West,270,7.0,12.0,78,-99.99,,,-99.99,,2013-09-21 17:12:00,
2013-09-21 10:23:00,44.0,38.0,-100.00,South,180,4.0,12.0,80,-99.99,,,-99.99,,2013-09-21 17:23:00,
2013-09-21 10:43:00,43.0,37.0,-100.00,West,270,7.0,9.0,78,-99.99,,,-99.99,,2013-09-21 17:43:00,
2013-09-21 10:52:00,44.0,37.0,-100.00,West,270,7.0,12.0,78,-99.99,,,-99.99,,2013-09-21 17:52:00,
2013-09-21 11:12:00,45.0,38.0,-100.00,West,270,6.0,11.0,76,-99.99,,,-99.99,,2013-09-21 18:12:00,
2013-09-21 11:22:00,45.0,37.0,-100.00,SW,225,7.0,12.0,74,-99.99,,,-99.99,,2013-09-21 18:22:00,
2013-09-21 11:42:00,45.0,36.0,-100.00,SW,225,5.0,10.0,71,-99.99,,,-99.99,,2013-09-21 18:42:00,
2013-09-21 11:52:00,45.0,36.0,-100.00,SW,225,7.0,12.0,71,-99.99,,,-99.99,,2013-09-21 18:52:00,
2013-09-21 12:11:00,46.0,36.0,-100.00,West,270,6.0,11.0,67,-99.99,,,-99.99,,2013-09-21 19:11:00,
2013-09-21 12:21:00,47.0,37.0,-100.00,West,270,4.0,12.0,68,-99.99,,,-99.99,,2013-09-21 19:21:00,
2013-09-21 12:42:00,46.0,37.0,-100.00,SW,225,2.0,12.0,69,-99.99,,,-99.99,,2013-09-21 19:42:00,
2013-09-21 12:52:00,45.0,38.0,-100.00,West,270,5.0,11.0,76,-99.99,,,-99.99,,2013-09-21 19:52:00,
2013-09-21 13:12:00,45.0,38.0,-100.00,West,270,6.0,12.0,75,-99.99,,,-99.99,,2013-09-21 20:12:00,
2013-09-21 13:21:00,43.0,40.0,-100.00,West,270,6.0,15.0,88,-99.99,,,-99.99,,2013-09-21 20:21:00,
2013-09-21 13:42:00,44.0,40.0,-100.00,West,270,6.0,9.0,87,-99.99,,,-99.99,,2013-09-21 20:42:00,
2013-09-21 13:52:00,45.0,40.0,-100.00,NW,315,6.0,9.0,83,-99.99,,,-99.99,,2013-09-21 20:52:00,
2013-09-21 14:11:00,45.0,40.0,-100.00,West,270,8.0,11.0,83,-99.99,,,-99.99,,2013-09-21 21:11:00,
2013-09-21 14:21:00,43.0,40.0,-100.00,West,270,6.0,10.0,88,-99.99,,,-99.99,,2013-09-21 21:21:00,
2013-09-21 14:44:00,44.0,40.0,-100.00,West,270,6.0,9.0,86,-99.99,,,-99.99,,2013-09-21 21:44:00,
2013-09-21 14:54:00,45.0,40.0,-100.00,West,270,4.0,9.0,84,-99.99,,,-99.99,,2013-09-21 21:54:00,
2013-09-21 15:13:00,45.0,40.0,-100.00,West,270,7.0,10.0,82,-99.99,,,-99.99,,2013-09-21 22:13:00,
2013-09-21 15:23:00,45.0,40.0,-100.00,NW,315,4.0,9.0,80,-99.99,,,-99.99,,2013-09-21 22:23:00,
2013-09-21 15:43:00,45.0,38.0,-100.00,West,270,6.0,11.0,76,-99.99,,,-99.99,,2013-09-21 22:43:00,
2013-09-21 15:53:00,45.0,39.0,-100.00,West,270,9.0,14.0,79,-99.99,,,-99.99,,2013-09-21 22:53:00,
2013-09-21 16:12:00,44.0,39.0,-100.00,West,270,7.0,15.0,82,-99.99,,,-99.99,,2013-09-21 23:12:00,
2013-09-21 16:22:00,43.0,38.0,-100.00,West,270,8.0,15.0,83,-99.99,,,-99.99,,2013-09-21 23:22:00,
2013-09-21 16:42:00,43.0,39.0,-100.00,West,270,6.0,12.0,85,-99.99,,,-99.99,,2013-09-21 23:42:00,
2013-09-21 16:52:00,44.0,38.0,-100.00,West,270,5.0,10.0,78,-99.99,,,-99.99,,2013-09-21 23:52:00,
2013-09-21 17:12:00,45.0,38.0,-100.00,NW,315,6.0,13.0,76,-99.99,,,-99.99,,2013-09-22 00:12:00,
2013-09-21 17:22:00,46.0,38.0,-100.00,West,270,6.0,12.0,73,-99.99,,,-99.99,,2013-09-22 00:22:00,
2013-09-21 17:43:00,45.0,39.0,-100.00,West,270,7.0,11.0,77,-99.99,,,-99.99,,2013-09-22 00:43:00,
2013-09-21 17:52:00,45.0,38.0,-100.00,NW,315,9.0,12.0,78,-99.99,,,-99.99,,2013-09-22 00:52:00,
2013-09-21 18:11:00,44.0,39.0,-100.00,West,270,8.0,16.0,80,-99.99,,,-99.99,,2013-09-22 01:11:00,
2013-09-21 18:21:00,44.0,38.0,-100.00,West,270,6.0,16.0,79,-99.99,,,-99.99,,2013-09-22 01:21:00,
2013-09-21 18:42:00,44.0,37.0,-100.00,West,270,5.0,12.0,77,-99.99,,,-99.99,,2013-09-22 01:42:00,
2013-09-21 18:52:00,42.0,36.0,-100.00,West,270,4.0,9.0,79,-99.99,,,-99.99,,2013-09-22 01:52:00,
2013-09-21 19:11:00,42.0,36.0,-100.00,West,270,4.0,6.0,80,-99.99,,,-99.99,,2013-09-22 02:11:00,
2013-09-21 19:22:00,41.0,37.0,-100.00,East,90,1.0,3.0,84,-99.99,,,-99.99,,2013-09-22 02:22:00,
2013-09-21 19:42:00,40.0,37.0,-100.00,West,270,3.0,3.0,87,-99.99,,,-99.99,,2013-09-22 02:42:00,
2013-09-21 19:52:00,39.0,36.0,-100.00,West,270,1.0,3.0,90,-99.99,,,-99.99,,2013-09-22 02:52:00,
2013-09-21 20:12:00,39.0,36.0,-100.00,West,270,2.0,3.0,88,-99.99,,,-99.99,,2013-09-22 03:12:00,
2013-09-21 20:22:00,40.0,35.0,-100.00,NW,315,5.0,9.0,81,-99.99,,,-99.99,,2013-09-22 03:22:00,
2013-09-21 20:44:00,41.0,35.0,-100.00,West,270,7.0,17.0,80,-99.99,,,-99.99,,2013-09-22 03:44:00,
2013-09-21 20:54:00,40.0,35.0,-100.00,West,270,7.0,14.0,82,-99.99,,,-99.99,,2013-09-22 03:54:00,
2013-09-21 21:02:00,-999.0,-99.9,-100.00,West,270,3.0,8.0,-999,-99.99,,,-99.99,,2013-09-22 04:02:00,
2013-09-21 21:14:00,40.0,34.0,-100.00,West,270,3.0,8.0,80,-99.99,,,-99.99,,2013-09-22 04:14:00,
2013-09-21 21:23:00,41.0,35.0,-100.00,West,270,14.0,24.0,80,-99.99,,,-99.99,,2013-09-22 04:23:00,
2013-09-21 21:43:00,41.0,35.0,-100.00,West,270,10.0,24.0,80,-99.99,,,-99.99,,2013-09-22 04:43:00,
2013-09-21 21:54:00,41.0,34.0,-100.00,NW,315,6.0,9.0,78,-99.99,,,-99.99,,2013-09-22 04:54:00,
2013-09-21 22:13:00,40.0,34.0,-100.00,North,0,2.0,6.0,79,-99.99,,,-99.99,,2013-09-22 05:13:00,
2013-09-21 22:23:00,39.0,34.0,-100.00,West,270,6.0,16.0,82,-99.99,,,-99.99,,2013-09-22 05:23:00,
2013-09-21 22:43:00,39.0,36.0,-100.00,West,270,14.0,23.0,88,-99.99,,,-99.99,,2013-09-22 05:43:00,
2013-09-21 22:53:00,39.0,34.0,-100.00,West,270,9.0,18.0,83,-99.99,,,-99.99,,2013-09-22 05:53:00,
2013-09-21 23:12:00,39.0,34.0,-100.00,North,0,6.0,14.0,80,-99.99,,,-99.99,,2013-09-22 06:12:00,
2013-09-21 23:22:00,41.0,31.0,-100.00,NW,315,11.0,19.0,68,-99.99,,,-99.99,,2013-09-22 06:22:00,
2013-09-21 23:42:00,41.0,32.0,-100.00,NW,315,16.0,30.0,70,-99.99,,,-99.99,,2013-09-22 06:42:00,
2013-09-21 23:52:00,38.0,34.0,-100.00,NW,315,12.0,19.0,85,-99.99,,,-99.99,,2013-09-22 06:52:00,